Regional Weather Roundup
Issued by NWS

Home | Current Version | Previous Version | Text Only | Print | Product List | Glossary Off
Versions: 1 2 3 4 5 6 7 8 9 10 11 12 13 14 15 16 17 18 19 20 21 22 23 24 25 26 27 28 29 30 31 32 33 34 35 36 37 38 39 40 41 42 43 44 45 46 47 48 49 50

000
ASUS45 KBOI 170610
RWRID

IDAHO REGIONAL WEATHER ROUNDUP
NATIONAL WEATHER SERVICE BOISE ID
1100 PM MST THU NOV 16 2017

NOTE: "FAIR" INDICATES FEW OR NO CLOUDS BELOW 12000 FEET
WITH NO SIGNIFICANT WEATHER AND/OR OBSTRUCTIONS TO VISIBILITY

IDZ012-014-170700-
SOUTHWEST IDAHO


CITY           SKY/WX    TMP DP  RH WIND       PRES   REMARKS
BOISE          CLOUDY    42  36  79 CALM      29.75R
CALDWELL       CLOUDY    42  38  85 SE5       29.75R
MOUNTAIN HOME  PTCLDY    38  36  91 NW6       29.75R WCI  33
$$

IDZ016-017-170700-
SOUTHCENTRAL IDAHO


CITY           SKY/WX    TMP DP  RH WIND       PRES   REMARKS
BURLEY         CLOUDY    43  39  86 SW9       29.71R
JEROME         CLOUDY    40  38  93 CALM      29.73R
TWIN FALLS     CLOUDY    40  40 100 SW8       29.75R WCI  34
$$

IDZ019>023-170700-
SOUTHEAST IDAHO


CITY           SKY/WX    TMP DP  RH WIND       PRES   REMARKS
IDAHO FALLS    CLOUDY    38  37  97 SW18      29.70R WCI  28
POCATELLO      LGT RAIN  40  37  89 S14       29.72S WCI  32
REXBURG        CLOUDY    37  35  92 W7        29.69F WCI  32
$$

IDZ006-010-011-018-031-032-170700-
CENTRAL IDAHO MOUNTAINS


CITY           SKY/WX    TMP DP  RH WIND       PRES   REMARKS
MCCALL         LGT SNOW  32  30  92 SE9       29.66S FOG     WCI  24
HAILEY         LGT RAIN  36  36 100 CALM      29.72F
STANLEY          N/A     29  26  89 VRB3      29.69F
SALMON         CLOUDY    33  30  88 CALM      29.67R
CHALLIS        CLOUDY    36  29  75 CALM      29.67S
$$

IDZ002-004-006-007-026-170700-
NORTHERN IDAHO


CITY           SKY/WX    TMP DP  RH WIND       PRES   REMARKS
LEWISTON       LGT RAIN  41  35  79 N9        29.69R
LOWELL           N/A     39  37  92 CALM      29.73S
COEUR D`ALENE  LGT RAIN  38  33  82 S6        29.63F WCI  33
MULLAN PASS    FLURRIES  24  22  91 VRB5      29.56R WCI  18
$$



USA.gov is the U.S. government's official web portal to all federal, state and local government web resources and services.